This is the latest recevied weather packets stored in our database for station/object N8SDR. If no packets are shown the sender has not sent any weather packets the latest 1 day(s).
| Time | Temp. | Humidity | Pressure | Rain* | Wind** | Luminosity | Snow |
|---|---|---|---|---|---|---|---|
| 1778095261 | 15.56° C | 57% | 1009.4 hPa | 0 mm | - | 403 W/m² | - |
| 1778094048 | 15° C | 55% | 1009.5 hPa | 0 mm | - | 381 W/m² | - |
| 1778092532 | 15° C | 58% | 1009.5 hPa | 0 mm | - | 294 W/m² | - |
| 1778091018 | 15° C | 59% | 1009.6 hPa | 0 mm | - | 376 W/m² | - |
| 1778090411 | 15.56° C | 57% | 1009.6 hPa | 0 mm | - | 503 W/m² | - |
| 1778090108 | 15.56° C | 56% | 1009.5 hPa | 0 mm | - | 514 W/m² | - |
| 1778087684 | 15° C | 59% | 1010 hPa | 0 mm | - | 607 W/m² | - |
| 1778085855 | 14.44° C | 64% | 1010.1 hPa | 0 mm | - | 799 W/m² | - |
| 1778085242 | 13.89° C | 64% | 1010.1 hPa | 0 mm | - | 763 W/m² | - |
| 1778084937 | 13.33° C | 64% | 1010.1 hPa | 0 mm | - | 324 W/m² | - |
| 1778083123 | 13.33° C | 67% | 1009.9 hPa | 0 mm | - | 555 W/m² | - |
| 1778079273 | 11.67° C | 70% | 1009.3 hPa | 0 mm | - | 579 W/m² | - |
| 1778076552 | 10.56° C | 79% | 1009 hPa | 0 mm | - | 180 W/m² | - |
| 1778075035 | 10° C | 86% | 1008.6 hPa | 0 mm | - | 212 W/m² | - |
| 1778074732 | 9.44° C | 86% | 1008.7 hPa | 0 mm | - | 245 W/m² | - |
| 1778074125 | 9.44° C | 88% | 1008.9 hPa | 0 mm | - | 235 W/m² | - |
| 1778073521 | 9.44° C | 88% | 1008.8 hPa | 0 mm | - | 130 W/m² | - |
| 1778072006 | 8.89° C | 89% | 1008.4 hPa | 0 mm | - | 113 W/m² | - |
| 1778071401 | 8.89° C | 90% | 1008.3 hPa | 0 mm | - | 117 W/m² | - |
| 1778070797 | 8.33° C | 91% | 1008.2 hPa | 0 mm | - | 163 W/m² | - |
| 1778070494 | 8.33° C | 91% | 1008.3 hPa | 0 mm | - | 138 W/m² | - |
| 1778070191 | 8.33° C | 92% | 1007.7 hPa | 0 mm | - | 138 W/m² | - |
| 1778069889 | 8.33° C | 92% | 1007.9 hPa | 0 mm | - | 123 W/m² | - |
| 1778069283 | 7.78° C | 93% | 1007.9 hPa | 0 mm | - | 95 W/m² | - |
| 1778068678 | 7.78° C | 94% | 1007.4 hPa | 0 mm | - | 68 W/m² | - |
* Rain latest hour (hover to see other rain measurements)
** Current wind speed in m/s (hover to see current wind gust speed)